{"data":{"norad_id":64227,"epoch":"2026-09-20T03:06:26.739360Z","epoch_age_seconds":169839,"freshness":"FRESH","line1":"1 64227U 25117AA  26263.12947615  .00021018  00000+0  63123-3 0  9990","line2":"2 64227  53.1592 215.1439 0002726  93.2288 266.9026 15.34409363 74316","mean_motion":15.34409363,"eccentricity":0.0002726,"inclination_deg":53.1592,"raan_deg":215.1439,"arg_perigee_deg":93.2288,"mean_anomaly_deg":266.9026,"bstar":0.00063123,"rev_number":7431,"period_min":93.847185420231,"perigee_km":460.81060607607,"apogee_km":464.54021700284,"semimajor_km":6840.8124115395,"source":"CELESTRAK","updated_at":"2026-09-21T09:00:35.275293Z"}}